Regional Weather Roundup
Issued by NWS

Home | Current Version | Previous Version | Text Only | Print | Product List | Glossary On
Versions: 1 2 3 4 5 6 7 8 9 10 11 12 13 14 15 16 17 18 19 20 21 22 23 24 25 26 27 28 29 30 31 32 33 34 35 36 37 38 39 40 41 42 43 44 45 46 47 48 49 50
000
ASUS43 KDTX 280210
RWRMI
MICHIGAN HOURLY REGIONAL WEATHER ROUNDUP
NATIONAL WEATHER SERVICE DETROIT/PONTIAC MI
1000 PM EDT SAT AUG 27 2016

NOTE: "FAIR" INDICATES FEW OR NO CLOUDS BELOW 12,000 FEET WITH NO
SIGNIFICANT WEATHER AND/OR OBSTRUCTION TO VISIBILITY.

MIZ047>049-052>055-059>063-066>070-074>076-081>083-280300-
SOUTHEAST LOWER MICHIGAN

CITY           SKY/WX    TMP DP  RH WIND       PRES   REMARKS
ADRIAN         CLEAR     71  71 100 CALM      30.13R
ALMA           FOG       67  67 100 SW5       30.09S VSB 1/2
ANN ARBOR      CLOUDY    72  72 100 SE5       30.12R
BAD AXE        MOCLDY    68  66  94 SW5       30.11R
CARO           CLOUDY    68  68  98 SE3       30.10S
DETROIT CITY   CLEAR     71  71 100 S7        30.12R
DETROIT        PTCLDY    72  71  97 SE5       30.12S
FLINT          CLOUDY    74  69  85 S6        30.12R
GROSSE ILE     CLEAR     75  72  90 S12G18    30.11S
HILLSDALE      CLOUDY    73  71  94 SE5       30.13R FOG
HOWELL         CLOUDY    71  70  96 S9        30.12S

CITY           SKY/WX    TMP DP  RH WIND       PRES   REMARKS
JACKSON        PTCLDY    72  72 100 S9        30.12R
LAMBERTVILLE   CLEAR     73  71  93 SE3       30.13R FOG
LANSING        PTCLDY    73  69  87 S7        30.11R
LAPEER         MOCLDY    69  68  96 SE3       30.12R
MASON          CLEAR     70  70 100 SE6       30.11S
MONROE         CLEAR     72  72  98 SE6       30.11S
MT. CLEMENS    PTCLDY    71  70  98 S6        30.10R
PONTIAC        MOCLDY    71  69  93 S5        30.12R
PORT HURON     CLEAR     68  66  94 S5        30.12R
TRI CITIES     CLEAR     69  69 100 S6        30.09R FOG
MIDLAND        FAIR      68  68  98 CALM      30.08S FOG
TROY           PTCLDY    72  70  91 S6        30.14R
SAGINAW HB     CLEAR     70  68  94 S5        30.09R
$$
MIZ043>046-050>051-056>058-064>065-071>073-077>080-280300-
SOUTHWEST LOWER MICHIGAN

CITY           SKY/WX    TMP DP  RH WIND       PRES   REMARKS
BATTLE CREEK   CLEAR     72  72 100 S6        30.11R
BENTON HARBOR  CLEAR     76  72  87 S8        30.07R
BIG RAPIDS     MOCLDY    71  69  93 S3        30.09R
COLDWATER      CLEAR     72  71  97 CALM      30.11R
FREMONT        CLOUDY    72  71  96 SE3       30.06S
HOLLAND        PTCLDY    74  70  87 CALM      30.08R
GRAND RAPIDS   PTCLDY    72  69  90 SE3       30.08R
IONIA          FAIR      69  67  94 S5        30.09R
KALAMAZOO      MOCLDY    76  71  85 S7        30.10R
LUDINGTON      CLOUDY    73  71  93 CALM      30.05R
MARSHALL       PTCLDY    73  73 100 S3        30.10R
MOUNT PLEASANT PTCLDY    70  69  95 CALM      30.08S
MUSKEGON       CLOUDY    76  71  85 SE3       30.06R
SOUTH HAVEN    HVY RAIN  79  75  87 S6        30.07R
$$
MIZ016>042-280300-
NORTHERN LOWER MICHIGAN

CITY           SKY/WX    TMP DP  RH WIND       PRES   REMARKS
ALPENA         CLOUDY    69  66  90 SE6       30.08S
BEAVER ISLAND  RAIN      65  64  99 CALM      30.04S
BELLAIRE       CLOUDY    72  66  83 CALM      30.04S
CADILLAC       CLOUDY    69  67  93 S5        30.08R
CHARLEVOIX     CLOUDY    70  67  90 SE6       30.06S
FRANKFORT      LGT RAIN  71  69  92 SE3       30.03R
GAYLORD        CLOUDY    68  64  87 SE6       30.08S
GRAYLING       MOCLDY    68  67  96 SE3       30.09R
HARBOR SPRINGS CLOUDY    67  65  94 NE5       30.04S
HOUGHTON LAKE  PTCLDY    68  66  93 S5        30.09R
MANISTEE       LGT RAIN  71  70  96 S5        30.04R
OSCODA         CLOUDY    72  69  91 S7        30.07S
PELLSTON       CLOUDY    67  64  90 SE8       30.05S
ROGERS CITY    CLOUDY    69  66  90 SE8       30.08S
TRAVERSE CITY  LGT RAIN  73  67  81 VRB5      30.03R
$$
MIZ007>008-015-280300-
EASTERN UPPER MICHIGAN

CITY           SKY/WX    TMP DP  RH WIND       PRES   REMARKS
KINROSS        LGT RAIN  64  63  96 E7        30.06F
MACKINAC ISLAN CLOUDY    66  66 100 SE7       30.05S
NEWBERRY       CLOUDY    62  61  97 E6        30.04F FOG
S. S. MARIE    RAIN      63  62  97 E3        30.06F FOG
$$
MIZ004>006-011>014-085-280300-
CENTRAL UPPER MICHIGAN

CITY           SKY/WX    TMP DP  RH WIND       PRES   REMARKS
MANISTIQUE     CLOUDY    63  61  92 CALM      30.04S
ESCANABA       CLOUDY    64  62  93 CALM      30.04S
MENOMINEE      MOCLDY   N/A N/A N/A CALM      30.05S
$$
MIZ001>003-009>011-084-280300-
WESTERN UPPER MICHIGAN

CITY           SKY/WX    TMP DP  RH WIND       PRES   REMARKS
IRON MOUNTAIN  CLOUDY    63  58  83 SE3       30.04S
HOUGHTON       CLOUDY    63  61  93 E7        30.04R
IRONWOOD       CLOUDY    61  60  97 SE3       30.04S
$$

ABBREVIATIONS USED IN REMARKS
   TC - TEMPERATURE IN CELSIUS
  WCI - WIND CHILL INDEX
   HX - HEAT INDEX
  VSB - VISIBILITY





USA.gov is the U.S. government's official web portal to all federal, state and local government web resources and services.